This is the latest recevied weather packets stored in our database for station/object DO9LL-1. If no packets are shown the sender has not sent any weather packets the latest 10 day(s).
| Time | Temp. | Humidity | Pressure | Rain* | Wind** | Luminosity | Snow |
|---|---|---|---|---|---|---|---|
| 1777046550 | 17.22° C | 47% | 1020.5 hPa | 0 mm | - | - | - |
| 1777045943 | 17.22° C | 46% | 1020.5 hPa | 0 mm | - | - | - |
| 1777045340 | 17.78° C | 45% | 1020.6 hPa | 0 mm | - | - | - |
| 1777044737 | 17.78° C | 47% | 1020.6 hPa | 0 mm | - | - | - |
| 1777044153 | 17.22° C | 45% | 1020.9 hPa | 0 mm | - | - | - |
| 1777043549 | 17.78° C | 45% | 1020.8 hPa | 0 mm | - | - | - |
| 1777042945 | 17.78° C | 45% | 1020.8 hPa | 0 mm | - | - | - |
| 1777042342 | 17.78° C | 47% | 1020.9 hPa | 0 mm | - | - | - |
| 1777041738 | 17.22° C | 46% | 1020.9 hPa | 0 mm | - | - | - |
| 1777041155 | 17.22° C | 47% | 1021 hPa | 0 mm | - | - | - |
| 1777040552 | 17.22° C | 47% | 1021.2 hPa | 0 mm | - | - | - |
| 1777039949 | 17.22° C | 49% | 1021.3 hPa | 0 mm | - | - | - |
| 1777039344 | 17.78° C | 49% | 1021.3 hPa | 0 mm | - | - | - |
| 1777038740 | 17.22° C | 49% | 1021.4 hPa | 0 mm | - | - | - |
| 1777038137 | 17.22° C | 50% | 1021.5 hPa | 0 mm | - | - | - |
| 1777037554 | 16.67° C | 48% | 1021.7 hPa | 0 mm | - | - | - |
| 1777036950 | 16.67° C | 49% | 1021.7 hPa | 0 mm | - | - | - |
| 1777036347 | 16.67° C | 51% | 1021.8 hPa | 0 mm | - | - | - |
| 1777035744 | 16.11° C | 54% | 1021.8 hPa | 0 mm | - | - | - |
| 1777035140 | 16.11° C | 53% | 1022 hPa | 0 mm | - | - | - |
| 1777034536 | 16.67° C | 53% | 1022 hPa | 0 mm | - | - | - |
| 1777033955 | 16.11° C | 53% | 1022.1 hPa | 0 mm | - | - | - |
| 1777033349 | 16.11° C | 55% | 1022.1 hPa | 0 mm | - | - | - |
| 1777032746 | 15.56° C | 57% | 1022.3 hPa | 0 mm | - | - | - |
| 1777032144 | 15° C | 57% | 1022.4 hPa | 0 mm | - | - | - |
* Rain latest hour (hover to see other rain measurements)
** Current wind speed in m/s (hover to see current wind gust speed)